Location: アルンシュタイン
(50.0000°N, 10.0000°E)
Time: 17:34:14
(UTC+02:00)

Vanguard 2 - All Passes

Search period start: 11 September 2024 00:00
Search period end: 21 September 2024 00:00
Orbit: 552 x 2911 km, 32.9° (Epoch: 10 September)

Date Brightness Start Highest point End Pass type
(mag) Time Alt. Az. Time Alt. Az. Time Alt. Az.
11 Sep - 05:56:10 10° SSW 06:00:51 18° SSE 06:07:03 10° ESE visible
11 Sep - 08:01:06 10° SW 08:08:17 30° S 08:18:50 10° ESE daylight
11 Sep - 10:08:21 10° WSW 10:16:57 27° SSW 10:28:39 10° SE daylight
11 Sep - 12:19:06 10° WSW 12:25:56 15° SSW 12:33:48 10° S daylight
12 Sep - 06:09:18 10° SSW 06:14:17 20° SSE 06:21:04 10° ESE visible
12 Sep - 08:14:48 10° SW 08:21:55 29° S 08:32:15 10° SE daylight
12 Sep - 10:22:30 10° WSW 10:30:34 24° SSW 10:41:16 10° SSE daylight
12 Sep - 12:36:04 10° SW 12:39:26 11° SW 12:43:01 10° SSW daylight
13 Sep - 06:22:38 10° SSW 06:27:45 22° SSE 06:34:53 10° ESE visible
13 Sep - 08:28:36 10° WSW 08:35:32 27° S 08:45:31 10° SE daylight
13 Sep - 10:36:54 10° WSW 10:44:11 20° SSW 10:53:29 10° SSE daylight
14 Sep - 06:36:06 10° SW 06:41:18 23° SSE 06:48:34 10° ESE daylight
14 Sep - 08:42:30 10° WSW 08:49:11 25° S 08:58:35 10° SE daylight
14 Sep - 10:51:46 10° WSW 10:57:48 16° SSW 11:05:06 10° S daylight
15 Sep - 04:45:44 10° S 04:47:57 12° SSE 04:50:28 10° SE visible
15 Sep - 06:49:41 10° SW 06:54:52 23° S 07:02:07 10° SE daylight
15 Sep - 08:56:33 10° WSW 09:02:51 22° S 09:11:24 10° SSE daylight
15 Sep - 11:07:50 10° SW 11:11:23 12° SSW 11:15:21 10° SSW daylight
16 Sep - 04:58:33 10° S 05:01:23 14° SSE 05:04:48 10° SE visible
16 Sep - 07:03:24 10° SW 07:08:29 22° S 07:15:30 10° SE daylight
16 Sep - 09:10:51 10° SW 09:16:30 18° SSW 09:23:51 10° SSE daylight
17 Sep - 05:11:43 10° SSW 05:14:52 15° SSE 05:18:45 10° SE visible
17 Sep - 07:17:15 10° SW 07:22:06 20° S 07:28:42 10° SE daylight
17 Sep - 09:25:36 10° SW 09:30:09 15° SSW 09:35:44 10° S daylight
18 Sep - 05:25:08 10° SSW 05:28:24 16° SSE 05:32:29 10° SE visible
18 Sep - 07:31:15 10° SW 07:35:45 18° S 07:41:39 10° SSE daylight
18 Sep - 09:41:41 10° SW 09:43:48 11° SSW 09:46:07 10° S daylight
19 Sep - 05:38:43 10° SSW 05:41:58 16° S 05:46:00 10° SE visible
19 Sep - 07:45:32 10° SW 07:49:24 15° S 07:54:15 10° SSE daylight
20 Sep - 05:52:29 10° SSW 05:55:34 15° S 05:59:18 10° SE visible
20 Sep - 08:00:24 10° SW 08:03:04 12° SSW 08:06:08 10° S daylight
